Data supplied by UK-AIR on 5/4/2008
All Data GMT hour ending 
Status: R =Ratified P=Provisional,P*=As supplied
,,High Muffles,,,,,,,,,,,,,,,,,,,,,,,
Date,time,"Ozone",status,unit
 
01-01-1997,01:00,,,
01-01-1997,02:00,74,R,ugm-3
01-01-1997,03:00,74,R,ugm-3
01-01-1997,04:00,74,R,ugm-3
01-01-1997,05:00,74,R,ugm-3
01-01-1997,06:00,76,R,ugm-3
01-01-1997,07:00,74,R,ugm-3
01-01-1997,08:00,70,R,ugm-3
01-01-1997,09:00,62,R,ugm-3
01-01-1997,10:00,62,R,ugm-3
01-01-1997,11:00,66,R,ugm-3
01-01-1997,12:00,64,R,ugm-3
01-01-1997,13:00,64,R,ugm-3
01-01-1997,14:00,66,R,ugm-3
01-01-1997,15:00,64,R,ugm-3
01-01-1997,16:00,64,R,ugm-3
01-01-1997,17:00,66,R,ugm-3
01-01-1997,18:00,64,R,ugm-3
01-01-1997,19:00,66,R,ugm-3
01-01-1997,20:00,66,R,ugm-3
01-01-1997,21:00,48,R,ugm-3
01-01-1997,22:00,24,R,ugm-3
01-01-1997,23:00,30,R,ugm-3
01-01-1997,24:00,36,R,ugm-3
02-01-1997,01:00,32,R,ugm-3
02-01-1997,02:00,36,R,ugm-3
02-01-1997,03:00,44,R,ugm-3
02-01-1997,04:00,42,R,ugm-3
02-01-1997,05:00,48,R,ugm-3
02-01-1997,06:00,50,R,ugm-3
02-01-1997,07:00,46,R,ugm-3
02-01-1997,08:00,48,R,ugm-3
02-01-1997,09:00,52,R,ugm-3
02-01-1997,10:00,62,R,ugm-3
02-01-1997,11:00,56,R,ugm-3
02-01-1997,12:00,48,R,ugm-3
02-01-1997,13:00,48,R,ugm-3
02-01-1997,14:00,42,R,ugm-3
02-01-1997,15:00,28,R,ugm-3
02-01-1997,16:00,30,R,ugm-3
02-01-1997,17:00,44,R,ugm-3
02-01-1997,18:00,56,R,ugm-3
02-01-1997,19:00,58,R,ugm-3
02-01-1997,20:00,50,R,ugm-3
02-01-1997,21:00,60,R,ugm-3
02-01-1997,22:00,58,R,ugm-3
02-01-1997,23:00,56,R,ugm-3
02-01-1997,24:00,52,R,ugm-3
03-01-1997,01:00,44,R,ugm-3
03-01-1997,02:00,52,R,ugm-3
03-01-1997,03:00,62,R,ugm-3
03-01-1997,04:00,64,R,ugm-3
03-01-1997,05:00,60,R,ugm-3
03-01-1997,06:00,58,R,ugm-3
03-01-1997,07:00,62,R,ugm-3
03-01-1997,08:00,60,R,ugm-3
03-01-1997,09:00,60,R,ugm-3
03-01-1997,10:00,58,R,ugm-3
03-01-1997,11:00,60,R,ugm-3
03-01-1997,12:00,66,R,ugm-3
03-01-1997,13:00,68,R,ugm-3
03-01-1997,14:00,68,R,ugm-3
03-01-1997,15:00,66,R,ugm-3
03-01-1997,16:00,66,R,ugm-3
03-01-1997,17:00,68,R,ugm-3
03-01-1997,18:00,68,R,ugm-3
03-01-1997,19:00,66,R,ugm-3
03-01-1997,20:00,66,R,ugm-3
03-01-1997,21:00,66,R,ugm-3
03-01-1997,22:00,66,R,ugm-3
03-01-1997,23:00,68,R,ugm-3
03-01-1997,24:00,72,R,ugm-3
04-01-1997,01:00,70,R,ugm-3
04-01-1997,02:00,70,R,ugm-3
04-01-1997,03:00,72,R,ugm-3
04-01-1997,04:00,72,R,ugm-3
04-01-1997,05:00,70,R,ugm-3
04-01-1997,06:00,68,R,ugm-3
04-01-1997,07:00,66,R,ugm-3
04-01-1997,08:00,68,R,ugm-3
04-01-1997,09:00,70,R,ugm-3
04-01-1997,10:00,70,R,ugm-3
04-01-1997,11:00,70,R,ugm-3
04-01-1997,12:00,70,R,ugm-3
04-01-1997,13:00,68,R,ugm-3
04-01-1997,14:00,70,R,ugm-3
04-01-1997,15:00,74,R,ugm-3
04-01-1997,16:00,74,R,ugm-3
04-01-1997,17:00,70,R,ugm-3
04-01-1997,18:00,72,R,ugm-3
04-01-1997,19:00,72,R,ugm-3
04-01-1997,20:00,74,R,ugm-3
04-01-1997,21:00,74,R,ugm-3
04-01-1997,22:00,74,R,ugm-3
04-01-1997,23:00,76,R,ugm-3
04-01-1997,24:00,78,R,ugm-3
05-01-1997,01:00,76,R,ugm-3
05-01-1997,02:00,78,R,ugm-3
05-01-1997,03:00,78,R,ugm-3
05-01-1997,04:00,78,R,ugm-3
05-01-1997,05:00,78,R,ugm-3
05-01-1997,06:00,80,R,ugm-3
05-01-1997,07:00,80,R,ugm-3
05-01-1997,08:00,80,R,ugm-3
05-01-1997,09:00,82,R,ugm-3
05-01-1997,10:00,80,R,ugm-3
05-01-1997,11:00,80,R,ugm-3
05-01-1997,12:00,78,R,ugm-3
05-01-1997,13:00,76,R,ugm-3
05-01-1997,14:00,76,R,ugm-3
05-01-1997,15:00,72,R,ugm-3
05-01-1997,16:00,68,R,ugm-3
05-01-1997,17:00,66,R,ugm-3
05-01-1997,18:00,66,R,ugm-3
05-01-1997,19:00,62,R,ugm-3
05-01-1997,20:00,60,R,ugm-3
05-01-1997,21:00,62,R,ugm-3
05-01-1997,22:00,62,R,ugm-3
05-01-1997,23:00,62,R,ugm-3
05-01-1997,24:00,62,R,ugm-3
06-01-1997,01:00,64,R,ugm-3
06-01-1997,02:00,60,R,ugm-3
06-01-1997,03:00,62,R,ugm-3
06-01-1997,04:00,56,R,ugm-3
06-01-1997,05:00,56,R,ugm-3
06-01-1997,06:00,56,R,ugm-3
06-01-1997,07:00,60,R,ugm-3
06-01-1997,08:00,64,R,ugm-3
06-01-1997,09:00,62,R,ugm-3
06-01-1997,10:00,62,R,ugm-3
06-01-1997,11:00,58,R,ugm-3
06-01-1997,12:00,64,R,ugm-3
06-01-1997,13:00,66,R,ugm-3
06-01-1997,14:00,64,R,ugm-3
06-01-1997,15:00,64,R,ugm-3
06-01-1997,16:00,60,R,ugm-3
06-01-1997,17:00,60,R,ugm-3
06-01-1997,18:00,60,R,ugm-3
06-01-1997,19:00,58,R,ugm-3
06-01-1997,20:00,60,R,ugm-3
06-01-1997,21:00,58,R,ugm-3
06-01-1997,22:00,54,R,ugm-3
06-01-1997,23:00,48,R,ugm-3
06-01-1997,24:00,62,R,ugm-3
07-01-1997,01:00,58,R,ugm-3
07-01-1997,02:00,54,R,ugm-3
07-01-1997,03:00,52,R,ugm-3
07-01-1997,04:00,58,R,ugm-3
07-01-1997,05:00,58,R,ugm-3
07-01-1997,06:00,58,R,ugm-3
07-01-1997,07:00,58,R,ugm-3
07-01-1997,08:00,58,R,ugm-3
07-01-1997,09:00,60,R,ugm-3
07-01-1997,10:00,54,R,ugm-3
07-01-1997,11:00,56,R,ugm-3
07-01-1997,12:00,60,R,ugm-3
07-01-1997,13:00,60,R,ugm-3
07-01-1997,14:00,62,R,ugm-3
07-01-1997,15:00,60,R,ugm-3
07-01-1997,16:00,60,R,ugm-3
07-01-1997,17:00,64,R,ugm-3
07-01-1997,18:00,60,R,ugm-3
07-01-1997,19:00,64,R,ugm-3
07-01-1997,20:00,62,R,ugm-3
07-01-1997,21:00,62,R,ugm-3
07-01-1997,22:00,68,R,ugm-3
07-01-1997,23:00,62,R,ugm-3
07-01-1997,24:00,64,R,ugm-3
08-01-1997,01:00,64,R,ugm-3
08-01-1997,02:00,66,R,ugm-3
08-01-1997,03:00,66,R,ugm-3
08-01-1997,04:00,68,R,ugm-3
08-01-1997,05:00,66,R,ugm-3
08-01-1997,06:00,66,R,ugm-3
08-01-1997,07:00,66,R,ugm-3
08-01-1997,08:00,66,R,ugm-3
08-01-1997,09:00,64,R,ugm-3
08-01-1997,10:00,64,R,ugm-3
08-01-1997,11:00,68,R,ugm-3
08-01-1997,12:00,66,R,ugm-3
08-01-1997,13:00,72,R,ugm-3
08-01-1997,14:00,72,R,ugm-3
08-01-1997,15:00,74,R,ugm-3
08-01-1997,16:00,74,R,ugm-3
08-01-1997,17:00,66,R,ugm-3
08-01-1997,18:00,62,R,ugm-3
08-01-1997,19:00,56,R,ugm-3
08-01-1997,20:00,68,R,ugm-3
08-01-1997,21:00,66,R,ugm-3
08-01-1997,22:00,72,R,ugm-3
08-01-1997,23:00,70,R,ugm-3
08-01-1997,24:00,72,R,ugm-3
09-01-1997,01:00,70,R,ugm-3
09-01-1997,02:00,64,R,ugm-3
09-01-1997,03:00,66,R,ugm-3
09-01-1997,04:00,70,R,ugm-3
09-01-1997,05:00,72,R,ugm-3
09-01-1997,06:00,72,R,ugm-3
09-01-1997,07:00,68,R,ugm-3
09-01-1997,08:00,70,R,ugm-3
09-01-1997,09:00,66,R,ugm-3
09-01-1997,10:00,64,R,ugm-3
09-01-1997,11:00,64,R,ugm-3
09-01-1997,12:00,62,R,ugm-3
09-01-1997,13:00,64,R,ugm-3
09-01-1997,14:00,62,R,ugm-3
09-01-1997,15:00,60,R,ugm-3
09-01-1997,16:00,64,R,ugm-3
09-01-1997,17:00,60,R,ugm-3
09-01-1997,18:00,64,R,ugm-3
09-01-1997,19:00,64,R,ugm-3
09-01-1997,20:00,64,R,ugm-3
09-01-1997,21:00,58,R,ugm-3
09-01-1997,22:00,52,R,ugm-3
09-01-1997,23:00,52,R,ugm-3
09-01-1997,24:00,52,R,ugm-3
10-01-1997,01:00,50,R,ugm-3
10-01-1997,02:00,48,R,ugm-3
10-01-1997,03:00,56,R,ugm-3
10-01-1997,04:00,58,R,ugm-3
10-01-1997,05:00,58,R,ugm-3
10-01-1997,06:00,40,R,ugm-3
10-01-1997,07:00,50,R,ugm-3
10-01-1997,08:00,54,R,ugm-3
10-01-1997,09:00,50,R,ugm-3
10-01-1997,10:00,48,R,ugm-3
10-01-1997,11:00,52,R,ugm-3
10-01-1997,12:00,42,R,ugm-3
10-01-1997,13:00,40,R,ugm-3
10-01-1997,14:00,46,R,ugm-3
10-01-1997,15:00,44,R,ugm-3
10-01-1997,16:00,44,R,ugm-3
10-01-1997,17:00,32,R,ugm-3
10-01-1997,18:00,40,R,ugm-3
10-01-1997,19:00,40,R,ugm-3
10-01-1997,20:00,34,R,ugm-3
10-01-1997,21:00,38,R,ugm-3
10-01-1997,22:00,28,R,ugm-3
10-01-1997,23:00,22,R,ugm-3
10-01-1997,24:00,14,R,ugm-3
11-01-1997,01:00,10,R,ugm-3
11-01-1997,02:00,10,R,ugm-3
11-01-1997,03:00,6,R,ugm-3
11-01-1997,04:00,2,R,ugm-3
11-01-1997,05:00,2,R,ugm-3
11-01-1997,06:00,2,R,ugm-3
11-01-1997,07:00,2,R,ugm-3
11-01-1997,08:00,2,R,ugm-3
11-01-1997,09:00,2,R,ugm-3
11-01-1997,10:00,2,R,ugm-3
11-01-1997,11:00,4,R,ugm-3
11-01-1997,12:00,4,R,ugm-3
11-01-1997,13:00,4,R,ugm-3
11-01-1997,14:00,4,R,ugm-3
11-01-1997,15:00,4,R,ugm-3
11-01-1997,16:00,2,R,ugm-3
11-01-1997,17:00,2,R,ugm-3
11-01-1997,18:00,2,R,ugm-3
11-01-1997,19:00,2,R,ugm-3
11-01-1997,20:00,2,R,ugm-3
11-01-1997,21:00,2,R,ugm-3
11-01-1997,22:00,2,R,ugm-3
11-01-1997,23:00,2,R,ugm-3
11-01-1997,24:00,2,R,ugm-3
12-01-1997,01:00,2,R,ugm-3
12-01-1997,02:00,2,R,ugm-3
12-01-1997,03:00,2,R,ugm-3
12-01-1997,04:00,2,R,ugm-3
12-01-1997,05:00,2,R,ugm-3
12-01-1997,06:00,0,R,ugm-3
12-01-1997,07:00,0,R,ugm-3
12-01-1997,08:00,4,R,ugm-3
12-01-1997,09:00,16,R,ugm-3
12-01-1997,10:00,24,R,ugm-3
12-01-1997,11:00,26,R,ugm-3
12-01-1997,12:00,26,R,ugm-3
12-01-1997,13:00,26,R,ugm-3
12-01-1997,14:00,28,R,ugm-3
12-01-1997,15:00,32,R,ugm-3
12-01-1997,16:00,46,R,ugm-3
12-01-1997,17:00,48,R,ugm-3
12-01-1997,18:00,34,R,ugm-3
12-01-1997,19:00,26,R,ugm-3
12-01-1997,20:00,24,R,ugm-3
12-01-1997,21:00,16,R,ugm-3
12-01-1997,22:00,16,R,ugm-3
12-01-1997,23:00,16,R,ugm-3
12-01-1997,24:00,18,R,ugm-3
13-01-1997,01:00,14,R,ugm-3
13-01-1997,02:00,2,R,ugm-3
13-01-1997,03:00,8,R,ugm-3
13-01-1997,04:00,12,R,ugm-3
13-01-1997,05:00,16,R,ugm-3
13-01-1997,06:00,20,R,ugm-3
13-01-1997,07:00,20,R,ugm-3
13-01-1997,08:00,22,R,ugm-3
13-01-1997,09:00,20,R,ugm-3
13-01-1997,10:00,14,R,ugm-3
13-01-1997,11:00,8,R,ugm-3
13-01-1997,12:00,16,R,ugm-3
13-01-1997,13:00,14,R,ugm-3
13-01-1997,14:00,10,R,ugm-3
13-01-1997,15:00,18,R,ugm-3
13-01-1997,16:00,22,R,ugm-3
13-01-1997,17:00,26,R,ugm-3
13-01-1997,18:00,20,R,ugm-3
13-01-1997,19:00,12,R,ugm-3
13-01-1997,20:00,2,R,ugm-3
13-01-1997,21:00,0,R,ugm-3
13-01-1997,22:00,0,R,ugm-3
13-01-1997,23:00,0,R,ugm-3
13-01-1997,24:00,2,R,ugm-3
14-01-1997,01:00,0,R,ugm-3
14-01-1997,02:00,0,R,ugm-3
14-01-1997,03:00,2,R,ugm-3
14-01-1997,04:00,2,R,ugm-3
14-01-1997,05:00,2,R,ugm-3
14-01-1997,06:00,2,R,ugm-3
14-01-1997,07:00,2,R,ugm-3
14-01-1997,08:00,2,R,ugm-3
14-01-1997,09:00,6,R,ugm-3
14-01-1997,10:00,12,R,ugm-3
14-01-1997,11:00,16,R,ugm-3
14-01-1997,12:00,16,R,ugm-3
14-01-1997,13:00,16,R,ugm-3
14-01-1997,14:00,14,R,ugm-3
14-01-1997,15:00,10,R,ugm-3
14-01-1997,16:00,4,R,ugm-3
14-01-1997,17:00,2,R,ugm-3
14-01-1997,18:00,0,R,ugm-3
14-01-1997,19:00,2,R,ugm-3
14-01-1997,20:00,2,R,ugm-3
14-01-1997,21:00,2,R,ugm-3
14-01-1997,22:00,0,R,ugm-3
14-01-1997,23:00,2,R,ugm-3
14-01-1997,24:00,2,R,ugm-3
15-01-1997,01:00,2,R,ugm-3
15-01-1997,02:00,2,R,ugm-3
15-01-1997,03:00,22,R,ugm-3
15-01-1997,04:00,18,R,ugm-3
15-01-1997,05:00,28,R,ugm-3
15-01-1997,06:00,44,R,ugm-3
15-01-1997,07:00,44,R,ugm-3
15-01-1997,08:00,38,R,ugm-3
15-01-1997,09:00,40,R,ugm-3
15-01-1997,10:00,50,R,ugm-3
15-01-1997,11:00,46,R,ugm-3
15-01-1997,12:00,44,R,ugm-3
15-01-1997,13:00,40,R,ugm-3
15-01-1997,14:00,44,R,ugm-3
15-01-1997,15:00,38,R,ugm-3
15-01-1997,16:00,28,R,ugm-3
15-01-1997,17:00,16,R,ugm-3
15-01-1997,18:00,4,R,ugm-3
15-01-1997,19:00,4,R,ugm-3
15-01-1997,20:00,6,R,ugm-3
15-01-1997,21:00,2,R,ugm-3
15-01-1997,22:00,2,R,ugm-3
15-01-1997,23:00,2,R,ugm-3
15-01-1997,24:00,2,R,ugm-3
16-01-1997,01:00,2,R,ugm-3
16-01-1997,02:00,2,R,ugm-3
16-01-1997,03:00,2,R,ugm-3
16-01-1997,04:00,2,R,ugm-3
16-01-1997,05:00,2,R,ugm-3
16-01-1997,06:00,2,R,ugm-3
16-01-1997,07:00,0,R,ugm-3
16-01-1997,08:00,2,R,ugm-3
16-01-1997,09:00,6,R,ugm-3
16-01-1997,10:00,6,R,ugm-3
16-01-1997,11:00,10,R,ugm-3
16-01-1997,12:00,,,
16-01-1997,13:00,8,R,ugm-3
16-01-1997,14:00,4,R,ugm-3
16-01-1997,15:00,4,R,ugm-3
16-01-1997,16:00,4,R,ugm-3
16-01-1997,17:00,2,R,ugm-3
16-01-1997,18:00,2,R,ugm-3
16-01-1997,19:00,2,R,ugm-3
16-01-1997,20:00,2,R,ugm-3
16-01-1997,21:00,2,R,ugm-3
16-01-1997,22:00,2,R,ugm-3
16-01-1997,23:00,2,R,ugm-3
16-01-1997,24:00,2,R,ugm-3
17-01-1997,01:00,2,R,ugm-3
17-01-1997,02:00,2,R,ugm-3
17-01-1997,03:00,2,R,ugm-3
17-01-1997,04:00,2,R,ugm-3
17-01-1997,05:00,2,R,ugm-3
17-01-1997,06:00,0,R,ugm-3
17-01-1997,07:00,2,R,ugm-3
17-01-1997,08:00,2,R,ugm-3
17-01-1997,09:00,2,R,ugm-3
17-01-1997,10:00,4,R,ugm-3
17-01-1997,11:00,6,R,ugm-3
17-01-1997,12:00,4,R,ugm-3
17-01-1997,13:00,4,R,ugm-3
17-01-1997,14:00,4,R,ugm-3
17-01-1997,15:00,4,R,ugm-3
17-01-1997,16:00,2,R,ugm-3
17-01-1997,17:00,2,R,ugm-3
17-01-1997,18:00,6,R,ugm-3
17-01-1997,19:00,46,R,ugm-3
17-01-1997,20:00,54,R,ugm-3
17-01-1997,21:00,50,R,ugm-3
17-01-1997,22:00,48,R,ugm-3
17-01-1997,23:00,48,R,ugm-3
17-01-1997,24:00,46,R,ugm-3
18-01-1997,01:00,38,R,ugm-3
18-01-1997,02:00,32,R,ugm-3
18-01-1997,03:00,26,R,ugm-3
18-01-1997,04:00,16,R,ugm-3
18-01-1997,05:00,22,R,ugm-3
18-01-1997,06:00,22,R,ugm-3
18-01-1997,07:00,20,R,ugm-3
18-01-1997,08:00,22,R,ugm-3
18-01-1997,09:00,20,R,ugm-3
18-01-1997,10:00,20,R,ugm-3
18-01-1997,11:00,26,R,ugm-3
18-01-1997,12:00,26,R,ugm-3
18-01-1997,13:00,20,R,ugm-3
18-01-1997,14:00,8,R,ugm-3
18-01-1997,15:00,14,R,ugm-3
18-01-1997,16:00,20,R,ugm-3
18-01-1997,17:00,24,R,ugm-3
18-01-1997,18:00,30,R,ugm-3
18-01-1997,19:00,28,R,ugm-3
18-01-1997,20:00,26,R,ugm-3
18-01-1997,21:00,24,R,ugm-3
18-01-1997,22:00,24,R,ugm-3
18-01-1997,23:00,22,R,ugm-3
18-01-1997,24:00,12,R,ugm-3
19-01-1997,01:00,8,R,ugm-3
19-01-1997,02:00,12,R,ugm-3
19-01-1997,03:00,16,R,ugm-3
19-01-1997,04:00,28,R,ugm-3
19-01-1997,05:00,34,R,ugm-3
19-01-1997,06:00,42,R,ugm-3
19-01-1997,07:00,48,R,ugm-3
19-01-1997,08:00,44,R,ugm-3
19-01-1997,09:00,38,R,ugm-3
19-01-1997,10:00,42,R,ugm-3
19-01-1997,11:00,48,R,ugm-3
19-01-1997,12:00,48,R,ugm-3
19-01-1997,13:00,50,R,ugm-3
19-01-1997,14:00,52,R,ugm-3
19-01-1997,15:00,50,R,ugm-3
19-01-1997,16:00,54,R,ugm-3
19-01-1997,17:00,48,R,ugm-3
19-01-1997,18:00,46,R,ugm-3
19-01-1997,19:00,36,R,ugm-3
19-01-1997,20:00,46,R,ugm-3
19-01-1997,21:00,70,R,ugm-3
19-01-1997,22:00,68,R,ugm-3
19-01-1997,23:00,64,R,ugm-3
19-01-1997,24:00,64,R,ugm-3
20-01-1997,01:00,64,R,ugm-3
20-01-1997,02:00,66,R,ugm-3
20-01-1997,03:00,64,R,ugm-3
20-01-1997,04:00,58,R,ugm-3
20-01-1997,05:00,62,R,ugm-3
20-01-1997,06:00,64,R,ugm-3
20-01-1997,07:00,68,R,ugm-3
20-01-1997,08:00,68,R,ugm-3
20-01-1997,09:00,68,R,ugm-3
20-01-1997,10:00,62,R,ugm-3
20-01-1997,11:00,60,R,ugm-3
20-01-1997,12:00,62,R,ugm-3
20-01-1997,13:00,64,R,ugm-3
20-01-1997,14:00,62,R,ugm-3
20-01-1997,15:00,60,R,ugm-3
20-01-1997,16:00,64,R,ugm-3
20-01-1997,17:00,60,R,ugm-3
20-01-1997,18:00,58,R,ugm-3
20-01-1997,19:00,62,R,ugm-3
20-01-1997,20:00,64,R,ugm-3
20-01-1997,21:00,64,R,ugm-3
20-01-1997,22:00,62,R,ugm-3
20-01-1997,23:00,66,R,ugm-3
20-01-1997,24:00,56,R,ugm-3
21-01-1997,01:00,54,R,ugm-3
21-01-1997,02:00,54,R,ugm-3
21-01-1997,03:00,54,R,ugm-3
21-01-1997,04:00,60,R,ugm-3
21-01-1997,05:00,60,R,ugm-3
21-01-1997,06:00,62,R,ugm-3
21-01-1997,07:00,68,R,ugm-3
21-01-1997,08:00,66,R,ugm-3
21-01-1997,09:00,60,R,ugm-3
21-01-1997,10:00,60,R,ugm-3
21-01-1997,11:00,64,R,ugm-3
21-01-1997,12:00,66,R,ugm-3
21-01-1997,13:00,64,R,ugm-3
21-01-1997,14:00,50,R,ugm-3
21-01-1997,15:00,32,R,ugm-3
21-01-1997,16:00,34,R,ugm-3
21-01-1997,17:00,36,R,ugm-3
21-01-1997,18:00,28,R,ugm-3
21-01-1997,19:00,34,R,ugm-3
21-01-1997,20:00,54,R,ugm-3
21-01-1997,21:00,60,R,ugm-3
21-01-1997,22:00,60,R,ugm-3
21-01-1997,23:00,58,R,ugm-3
21-01-1997,24:00,60,R,ugm-3
22-01-1997,01:00,64,R,ugm-3
22-01-1997,02:00,58,R,ugm-3
22-01-1997,03:00,50,R,ugm-3
22-01-1997,04:00,46,R,ugm-3
22-01-1997,05:00,40,R,ugm-3
22-01-1997,06:00,26,R,ugm-3
22-01-1997,07:00,18,R,ugm-3
22-01-1997,08:00,6,R,ugm-3
22-01-1997,09:00,2,R,ugm-3
22-01-1997,10:00,4,R,ugm-3
22-01-1997,11:00,6,R,ugm-3
22-01-1997,12:00,6,R,ugm-3
22-01-1997,13:00,8,R,ugm-3
22-01-1997,14:00,6,R,ugm-3
22-01-1997,15:00,6,R,ugm-3
22-01-1997,16:00,4,R,ugm-3
22-01-1997,17:00,0,R,ugm-3
22-01-1997,18:00,0,R,ugm-3
22-01-1997,19:00,0,R,ugm-3
22-01-1997,20:00,2,R,ugm-3
22-01-1997,21:00,0,R,ugm-3
22-01-1997,22:00,2,R,ugm-3
22-01-1997,23:00,2,R,ugm-3
22-01-1997,24:00,0,R,ugm-3
23-01-1997,01:00,0,R,ugm-3
23-01-1997,02:00,2,R,ugm-3
23-01-1997,03:00,0,R,ugm-3
23-01-1997,04:00,0,R,ugm-3
23-01-1997,05:00,0,R,ugm-3
23-01-1997,06:00,4,R,ugm-3
23-01-1997,07:00,22,R,ugm-3
23-01-1997,08:00,26,R,ugm-3
23-01-1997,09:00,18,R,ugm-3
23-01-1997,10:00,18,R,ugm-3
23-01-1997,11:00,24,R,ugm-3
23-01-1997,12:00,22,R,ugm-3
23-01-1997,13:00,14,R,ugm-3
23-01-1997,14:00,6,R,ugm-3
23-01-1997,15:00,4,R,ugm-3
23-01-1997,16:00,4,R,ugm-3
23-01-1997,17:00,0,R,ugm-3
23-01-1997,18:00,2,R,ugm-3
23-01-1997,19:00,2,R,ugm-3
23-01-1997,20:00,2,R,ugm-3
23-01-1997,21:00,2,R,ugm-3
23-01-1997,22:00,0,R,ugm-3
23-01-1997,23:00,0,R,ugm-3
23-01-1997,24:00,0,R,ugm-3
24-01-1997,01:00,0,R,ugm-3
24-01-1997,02:00,2,R,ugm-3
24-01-1997,03:00,2,R,ugm-3
24-01-1997,04:00,0,R,ugm-3
24-01-1997,05:00,0,R,ugm-3
24-01-1997,06:00,0,R,ugm-3
24-01-1997,07:00,-2,R,ugm-3
24-01-1997,08:00,0,R,ugm-3
24-01-1997,09:00,2,R,ugm-3
24-01-1997,10:00,4,R,ugm-3
24-01-1997,11:00,8,R,ugm-3
24-01-1997,12:00,8,R,ugm-3
24-01-1997,13:00,8,R,ugm-3
24-01-1997,14:00,8,R,ugm-3
24-01-1997,15:00,6,R,ugm-3
24-01-1997,16:00,2,R,ugm-3
24-01-1997,17:00,0,R,ugm-3
24-01-1997,18:00,-2,R,ugm-3
24-01-1997,19:00,-2,R,ugm-3
24-01-1997,20:00,-2,R,ugm-3
24-01-1997,21:00,0,R,ugm-3
24-01-1997,22:00,0,R,ugm-3
24-01-1997,23:00,2,R,ugm-3
24-01-1997,24:00,0,R,ugm-3
25-01-1997,01:00,2,R,ugm-3
25-01-1997,02:00,0,R,ugm-3
25-01-1997,03:00,0,R,ugm-3
25-01-1997,04:00,0,R,ugm-3
25-01-1997,05:00,2,R,ugm-3
25-01-1997,06:00,0,R,ugm-3
25-01-1997,07:00,0,R,ugm-3
25-01-1997,08:00,0,R,ugm-3
25-01-1997,09:00,2,R,ugm-3
25-01-1997,10:00,2,R,ugm-3
25-01-1997,11:00,8,R,ugm-3
25-01-1997,12:00,12,R,ugm-3
25-01-1997,13:00,20,R,ugm-3
25-01-1997,14:00,16,R,ugm-3
25-01-1997,15:00,16,R,ugm-3
25-01-1997,16:00,16,R,ugm-3
25-01-1997,17:00,4,R,ugm-3
25-01-1997,18:00,-2,R,ugm-3
25-01-1997,19:00,-2,R,ugm-3
25-01-1997,20:00,2,R,ugm-3
25-01-1997,21:00,4,R,ugm-3
25-01-1997,22:00,6,R,ugm-3
25-01-1997,23:00,8,R,ugm-3
25-01-1997,24:00,6,R,ugm-3
26-01-1997,01:00,6,R,ugm-3
26-01-1997,02:00,2,R,ugm-3
26-01-1997,03:00,2,R,ugm-3
26-01-1997,04:00,2,R,ugm-3
26-01-1997,05:00,4,R,ugm-3
26-01-1997,06:00,6,R,ugm-3
26-01-1997,07:00,10,R,ugm-3
26-01-1997,08:00,12,R,ugm-3
26-01-1997,09:00,14,R,ugm-3
26-01-1997,10:00,24,R,ugm-3
26-01-1997,11:00,38,R,ugm-3
26-01-1997,12:00,48,R,ugm-3
26-01-1997,13:00,52,R,ugm-3
26-01-1997,14:00,60,R,ugm-3
26-01-1997,15:00,62,R,ugm-3
26-01-1997,16:00,42,R,ugm-3
26-01-1997,17:00,38,R,ugm-3
26-01-1997,18:00,36,R,ugm-3
26-01-1997,19:00,24,R,ugm-3
26-01-1997,20:00,20,R,ugm-3
26-01-1997,21:00,26,R,ugm-3
26-01-1997,22:00,14,R,ugm-3
26-01-1997,23:00,6,R,ugm-3
26-01-1997,24:00,6,R,ugm-3
27-01-1997,01:00,4,R,ugm-3
27-01-1997,02:00,4,R,ugm-3
27-01-1997,03:00,12,R,ugm-3
27-01-1997,04:00,44,R,ugm-3
27-01-1997,05:00,54,R,ugm-3
27-01-1997,06:00,36,R,ugm-3
27-01-1997,07:00,14,R,ugm-3
27-01-1997,08:00,12,R,ugm-3
27-01-1997,09:00,14,R,ugm-3
27-01-1997,10:00,20,R,ugm-3
27-01-1997,11:00,8,R,ugm-3
27-01-1997,12:00,12,R,ugm-3
27-01-1997,13:00,40,R,ugm-3
27-01-1997,14:00,74,R,ugm-3
27-01-1997,15:00,76,R,ugm-3
27-01-1997,16:00,72,R,ugm-3
27-01-1997,17:00,70,R,ugm-3
27-01-1997,18:00,66,R,ugm-3
27-01-1997,19:00,62,R,ugm-3
27-01-1997,20:00,60,R,ugm-3
27-01-1997,21:00,56,R,ugm-3
27-01-1997,22:00,48,R,ugm-3
27-01-1997,23:00,30,R,ugm-3
27-01-1997,24:00,22,R,ugm-3
28-01-1997,01:00,24,R,ugm-3
28-01-1997,02:00,30,R,ugm-3
28-01-1997,03:00,36,R,ugm-3
28-01-1997,04:00,42,R,ugm-3
28-01-1997,05:00,26,R,ugm-3
28-01-1997,06:00,42,R,ugm-3
28-01-1997,07:00,34,R,ugm-3
28-01-1997,08:00,28,R,ugm-3
28-01-1997,09:00,38,R,ugm-3
28-01-1997,10:00,44,R,ugm-3
28-01-1997,11:00,48,R,ugm-3
28-01-1997,12:00,54,R,ugm-3
28-01-1997,13:00,64,R,ugm-3
28-01-1997,14:00,66,R,ugm-3
28-01-1997,15:00,58,R,ugm-3
28-01-1997,16:00,40,R,ugm-3
28-01-1997,17:00,30,R,ugm-3
28-01-1997,18:00,32,R,ugm-3
28-01-1997,19:00,42,R,ugm-3
28-01-1997,20:00,38,R,ugm-3
28-01-1997,21:00,28,R,ugm-3
28-01-1997,22:00,28,R,ugm-3
28-01-1997,23:00,42,R,ugm-3
28-01-1997,24:00,52,R,ugm-3
29-01-1997,01:00,60,R,ugm-3
29-01-1997,02:00,60,R,ugm-3
29-01-1997,03:00,66,R,ugm-3
29-01-1997,04:00,66,R,ugm-3
29-01-1997,05:00,64,R,ugm-3
29-01-1997,06:00,66,R,ugm-3
29-01-1997,07:00,62,R,ugm-3
29-01-1997,08:00,62,R,ugm-3
29-01-1997,09:00,64,R,ugm-3
29-01-1997,10:00,68,R,ugm-3
29-01-1997,11:00,72,R,ugm-3
29-01-1997,12:00,76,R,ugm-3
29-01-1997,13:00,78,R,ugm-3
29-01-1997,14:00,76,R,ugm-3
29-01-1997,15:00,76,R,ugm-3
29-01-1997,16:00,72,R,ugm-3
29-01-1997,17:00,48,R,ugm-3
29-01-1997,18:00,46,R,ugm-3
29-01-1997,19:00,40,R,ugm-3
29-01-1997,20:00,24,R,ugm-3
29-01-1997,21:00,22,R,ugm-3
29-01-1997,22:00,24,R,ugm-3
29-01-1997,23:00,30,R,ugm-3
29-01-1997,24:00,36,R,ugm-3
30-01-1997,01:00,32,R,ugm-3
30-01-1997,02:00,26,R,ugm-3
30-01-1997,03:00,28,R,ugm-3
30-01-1997,04:00,18,R,ugm-3
30-01-1997,05:00,14,R,ugm-3
30-01-1997,06:00,16,R,ugm-3
30-01-1997,07:00,16,R,ugm-3
30-01-1997,08:00,12,R,ugm-3
30-01-1997,09:00,18,R,ugm-3
30-01-1997,10:00,6,R,ugm-3
30-01-1997,11:00,6,R,ugm-3
30-01-1997,12:00,8,R,ugm-3
30-01-1997,13:00,6,R,ugm-3
30-01-1997,14:00,4,R,ugm-3
30-01-1997,15:00,2,R,ugm-3
30-01-1997,16:00,2,R,ugm-3
30-01-1997,17:00,10,R,ugm-3
30-01-1997,18:00,20,R,ugm-3
30-01-1997,19:00,34,R,ugm-3
30-01-1997,20:00,26,R,ugm-3
30-01-1997,21:00,22,R,ugm-3
30-01-1997,22:00,16,R,ugm-3
30-01-1997,23:00,16,R,ugm-3
30-01-1997,24:00,16,R,ugm-3
31-01-1997,01:00,16,R,ugm-3
31-01-1997,02:00,18,R,ugm-3
31-01-1997,03:00,20,R,ugm-3
31-01-1997,04:00,22,R,ugm-3
31-01-1997,05:00,28,R,ugm-3
31-01-1997,06:00,32,R,ugm-3
31-01-1997,07:00,34,R,ugm-3
31-01-1997,08:00,34,R,ugm-3
31-01-1997,09:00,26,R,ugm-3
31-01-1997,10:00,24,R,ugm-3
31-01-1997,11:00,26,R,ugm-3
31-01-1997,12:00,28,R,ugm-3
31-01-1997,13:00,38,R,ugm-3
31-01-1997,14:00,46,R,ugm-3
31-01-1997,15:00,38,R,ugm-3
31-01-1997,16:00,42,R,ugm-3
31-01-1997,17:00,40,R,ugm-3
31-01-1997,18:00,38,R,ugm-3
31-01-1997,19:00,50,R,ugm-3
31-01-1997,20:00,70,R,ugm-3
31-01-1997,21:00,68,R,ugm-3
31-01-1997,22:00,72,R,ugm-3
31-01-1997,23:00,70,R,ugm-3
31-01-1997,24:00,66,R,ugm-3
01-02-1997,01:00,68,R,ugm-3
01-02-1997,02:00,74,R,ugm-3
01-02-1997,03:00,72,R,ugm-3
01-02-1997,04:00,66,R,ugm-3
01-02-1997,05:00,62,R,ugm-3
01-02-1997,06:00,66,R,ugm-3
01-02-1997,07:00,68,R,ugm-3
01-02-1997,08:00,62,R,ugm-3
01-02-1997,09:00,56,R,ugm-3
01-02-1997,10:00,62,R,ugm-3
01-02-1997,11:00,64,R,ugm-3
01-02-1997,12:00,72,R,ugm-3
01-02-1997,13:00,70,R,ugm-3
01-02-1997,14:00,64,R,ugm-3
01-02-1997,15:00,60,R,ugm-3
01-02-1997,16:00,52,R,ugm-3
01-02-1997,17:00,42,R,ugm-3
01-02-1997,18:00,30,R,ugm-3
01-02-1997,19:00,26,R,ugm-3
01-02-1997,20:00,14,R,ugm-3
01-02-1997,21:00,14,R,ugm-3
01-02-1997,22:00,8,R,ugm-3
01-02-1997,23:00,4,R,ugm-3
01-02-1997,24:00,2,R,ugm-3
02-02-1997,01:00,2,R,ugm-3
02-02-1997,02:00,0,R,ugm-3
02-02-1997,03:00,0,R,ugm-3
02-02-1997,04:00,0,R,ugm-3
02-02-1997,05:00,0,R,ugm-3
02-02-1997,06:00,0,R,ugm-3
02-02-1997,07:00,-2,R,ugm-3
02-02-1997,08:00,0,R,ugm-3
02-02-1997,09:00,2,R,ugm-3
02-02-1997,10:00,10,R,ugm-3
02-02-1997,11:00,20,R,ugm-3
02-02-1997,12:00,58,R,ugm-3
02-02-1997,13:00,68,R,ugm-3
02-02-1997,14:00,70,R,ugm-3
02-02-1997,15:00,70,R,ugm-3
02-02-1997,16:00,68,R,ugm-3
02-02-1997,17:00,62,R,ugm-3
02-02-1997,18:00,62,R,ugm-3
02-02-1997,19:00,60,R,ugm-3
02-02-1997,20:00,58,R,ugm-3
02-02-1997,21:00,60,R,ugm-3
02-02-1997,22:00,58,R,ugm-3
02-02-1997,23:00,60,R,ugm-3
02-02-1997,24:00,58,R,ugm-3
03-02-1997,01:00,56,R,ugm-3
03-02-1997,02:00,56,R,ugm-3
03-02-1997,03:00,54,R,ugm-3
03-02-1997,04:00,52,R,ugm-3
03-02-1997,05:00,44,R,ugm-3
03-02-1997,06:00,30,R,ugm-3
03-02-1997,07:00,16,R,ugm-3
03-02-1997,08:00,6,R,ugm-3
03-02-1997,09:00,10,R,ugm-3
03-02-1997,10:00,14,R,ugm-3
03-02-1997,11:00,14,R,ugm-3
03-02-1997,12:00,18,R,ugm-3
03-02-1997,13:00,20,R,ugm-3
03-02-1997,14:00,26,R,ugm-3
03-02-1997,15:00,38,R,ugm-3
03-02-1997,16:00,36,R,ugm-3
03-02-1997,17:00,34,R,ugm-3
03-02-1997,18:00,34,R,ugm-3
03-02-1997,19:00,34,R,ugm-3
03-02-1997,20:00,36,R,ugm-3
03-02-1997,21:00,38,R,ugm-3
03-02-1997,22:00,40,R,ugm-3
03-02-1997,23:00,38,R,ugm-3
03-02-1997,24:00,44,R,ugm-3
04-02-1997,01:00,58,R,ugm-3
04-02-1997,02:00,62,R,ugm-3
04-02-1997,03:00,60,R,ugm-3
04-02-1997,04:00,60,R,ugm-3
04-02-1997,05:00,60,R,ugm-3
04-02-1997,06:00,50,R,ugm-3
04-02-1997,07:00,48,R,ugm-3
04-02-1997,08:00,48,R,ugm-3
04-02-1997,09:00,44,R,ugm-3
04-02-1997,10:00,44,R,ugm-3
04-02-1997,11:00,42,R,ugm-3
04-02-1997,12:00,48,R,ugm-3
04-02-1997,13:00,62,R,ugm-3
04-02-1997,14:00,50,R,ugm-3
04-02-1997,15:00,56,R,ugm-3
04-02-1997,16:00,64,R,ugm-3
04-02-1997,17:00,70,R,ugm-3
04-02-1997,18:00,66,R,ugm-3
04-02-1997,19:00,48,R,ugm-3
04-02-1997,20:00,28,R,ugm-3
04-02-1997,21:00,22,R,ugm-3
04-02-1997,22:00,42,R,ugm-3
04-02-1997,23:00,44,R,ugm-3
04-02-1997,24:00,36,R,ugm-3
05-02-1997,01:00,38,R,ugm-3
05-02-1997,02:00,24,R,ugm-3
05-02-1997,03:00,16,R,ugm-3
05-02-1997,04:00,22,R,ugm-3
05-02-1997,05:00,20,R,ugm-3
05-02-1997,06:00,20,R,ugm-3
05-02-1997,07:00,20,R,ugm-3
05-02-1997,08:00,20,R,ugm-3
05-02-1997,09:00,38,R,ugm-3
05-02-1997,10:00,46,R,ugm-3
05-02-1997,11:00,,,
05-02-1997,12:00,,,
05-02-1997,13:00,64,R,ugm-3
05-02-1997,14:00,68,R,ugm-3
05-02-1997,15:00,70,R,ugm-3
05-02-1997,16:00,70,R,ugm-3
05-02-1997,17:00,64,R,ugm-3
05-02-1997,18:00,58,R,ugm-3
05-02-1997,19:00,54,R,ugm-3